This is the latest recevied weather packets stored in our database for station/object AB2HM. If no packets are shown the sender has not sent any weather packets the latest 10 day(s).
| Time | Temp. | Humidity | Pressure | Rain* | Wind** | Luminosity | Snow |
|---|---|---|---|---|---|---|---|
| 1788164978 | 22.22° C | 92% | 1020 hPa | 0 mm | - | - | - |
| 1788163168 | 22.22° C | 92% | 1020.2 hPa | 0 mm | - | - | - |
| 1788161347 | 22.22° C | 91% | 1020.1 hPa | 0 mm | - | - | - |
| 1788159525 | 22.78° C | 91% | 1020.3 hPa | 0 mm | - | - | - |
| 1788157711 | 22.78° C | 90% | 1020.2 hPa | 0 mm | - | - | - |
| 1788155909 | 23.33° C | 90% | 1020.7 hPa | 0 mm | - | - | - |
| 1788154102 | 23.33° C | 89% | 1020.8 hPa | 0 mm | - | - | - |
| 1788152287 | 23.33° C | 88% | 1020.6 hPa | 0 mm | - | - | - |
| 1788150486 | 23.89° C | 88% | 1020.6 hPa | 0.76 mm | - | - | - |
| 1788148679 | 24.44° C | 87% | 1020.5 hPa | 1.27 mm | - | - | - |
| 1788146871 | 25° C | 86% | 1020.5 hPa | 0.76 mm | - | - | - |
| 1788145073 | 25.56° C | 84% | 1020.3 hPa | 0.25 mm | - | - | - |
| 1788143271 | 25.56° C | 82% | 1020.5 hPa | 0 mm | - | - | - |
| 1788141463 | 26.11° C | 80% | 1020.5 hPa | 0 mm | - | - | - |
| 1788139662 | 26.67° C | 78% | 1020.6 hPa | 0 mm | - | - | - |
| 1788137830 | 26.67° C | 75% | 1020.6 hPa | 0 mm | - | - | - |
| 1788136023 | 27.22° C | 73% | 1020.2 hPa | 0 mm | - | - | - |
| 1788134217 | 27.22° C | 70% | 1019.9 hPa | 0 mm | - | - | - |
| 1788132410 | 28.33° C | 66% | 1019.9 hPa | 0 mm | - | - | - |
| 1788130609 | 28.89° C | 64% | 1019.9 hPa | 0 mm | - | - | - |
| 1788128798 | 29.44° C | 63% | 1019.9 hPa | 0 mm | - | - | - |
| 1788126987 | 29.44° C | 61% | 1019.7 hPa | 0 mm | - | - | - |
| 1788125176 | 29.44° C | 60% | 1019.8 hPa | 0 mm | - | - | - |
| 1788123371 | 29.44° C | 60% | 1019.8 hPa | 0 mm | - | - | - |
| 1788121567 | 28.89° C | 59% | 1019.8 hPa | 0 mm | - | - | - |
* Rain latest hour (hover to see other rain measurements)
** Current wind speed in m/s (hover to see current wind gust speed)